Вернуться в каталог

STARLINK-4366

АктивенСвязьSSO
NORAD 53227·PAYLOAD·🇺🇸 United States

Запущен Jul 22, 2022 с Vandenberg Space Force Base

Loading…

Ближайшие Пролёты (ближайшие 24 часа)

TLE

СвежийSource: CelesTrak SupGP

Эпоха: Sep 14, 2026, 20:52 UTC

1 53227C 22084AQ  26257.86993056 -.00035638  00000+0 -11063-2 0  2579
2 53227  97.2840 313.6003 0001640  92.5209  72.7096 15.33457675    13

Отслеживайте STARLINK-4366 в реальном времени с AllMySat

Download on the App Store